[[{"header":{"parameterUnit":"m.s-1","parameterCategory":1,"la1":30.2992,"la2":30.254,"lo1":-89.0895,"lo2":-89.0443,"dy":0.0025,"dx":0.0025,"nx":19,"ny":19,"refTime":"2026-04-04T09:00:00:Z","depth":0,"parameterNumber":2,"parameterNumberName":"U-component_of_WINDS"},"data":[0,0,0,1.6458,1.6462,1.6657,1.6658,1.691,1.6912,0,0,0,0,0,0,0,0,0,0,0,1.6402,1.6404,1.6458,1.6463,1.6657,1.6658,1.6909,1.6912,0,0,0,0,0,0,0,0,0,0,0,1.6401,1.6403,1.6405,1.6463,1.6657,1.6658,1.6909,1.6761,0,0,0,0,0,0,0,0,0,0,1.6572,1.6521,1.6403,1.6406,1.6465,1.6657,1.6658,1.6754,1.677,1.6823,0,1.687,0,1.6895,1.6929,1.693,0,0,0,1.6462,1.6507,1.6558,1.6406,1.6466,1.6656,1.6569,1.6763,1.6782,1.6845,1.6873,1.6882,1.6899,1.6931,1.6932,1.7238,1.724,0,0,1.6451,1.6438,1.6546,1.6571,1.654,1.6563,1.6575,1.6774,1.6805,1.6874,1.6888,1.6903,1.6933,1.6934,1.7237,1.7239,0,0,0,1.6421,1.643,1.6477,1.656,1.6595,1.6569,1.6583,1.6796,1.6812,1.6891,1.6906,1.6934,1.6937,1.7235,1.7238,1.73,0,0,0,1.6414,1.6413,1.6472,1.6466,1.6591,1.6698,1.66,1.6798,1.6821,1.6905,1.6934,1.694,1.7234,1.7236,1.7295,1.7332,0,0,0,1.6389,1.641,1.6438,1.6465,1.6548,1.6695,1.6722,1.6803,1.6831,1.693,1.694,1.7233,1.7236,1.729,1.7325,1.7412,0,0,0,1.6358,1.649,1.6439,1.6592,1.6546,1.6731,1.6721,1.6859,1.6952,1.6935,1.7234,1.7237,1.7289,1.732,1.7406,1.7485,1.7515,0,0,1.6517,1.6509,1.66,1.656,1.6751,1.6702,1.6902,1.6999,1.702,1.7164,1.7172,1.7296,1.7324,1.741,1.7683,1.7707,0,0,0,1.6646,1.6712,1.6765,1.6853,1.693,1.7,1.7067,1.7103,1.7226,1.7091,1.7349,1.7367,1.7418,1.7456,1.7476,1.7523,1.7253,1.7253,1.7253,1.6855,1.6875,1.7028,1.7071,1.7156,1.7225,1.7296,1.7356,1.7351,1.7411,1.7456,1.7619,1.7663,1.7678,1.7726,1.7495,1.7495,1.7496,1.7496,1.7093,1.7191,1.718,1.7325,1.7345,1.7467,1.7538,1.753,1.7647,1.7586,1.7633,1.7568,1.7704,1.7747,1.7501,1.75,1.7499,1.7499,1.7498,1.7236,1.7286,1.7327,1.7457,1.7554,1.7592,1.7706,1.7719,1.7732,1.7777,1.7827,1.7826,1.783,1.7799,1.78,1.78,1.7801,1.7801,1.7802,1.7369,1.7413,1.7507,1.76,1.7658,1.7737,1.7806,1.7864,1.7932,1.7933,1.7933,1.7924,1.7712,1.766,1.7811,1.7809,1.7808,1.7807,1.7806,1.761,1.7558,1.7703,1.7762,1.7872,1.7969,1.7983,1.8101,1.815,1.8206,1.8186,1.8025,1.8018,1.8002,1.796,1.8179,1.8179,1.8179,1.8179,1.7734,1.773,1.7883,1.7976,1.8068,1.8096,1.8261,1.8316,1.8364,1.8396,1.8365,1.8309,1.8291,1.8295,1.8272,1.8234,1.8517,1.8518,1.8518,1.7885,1.7891,1.803,1.8075,1.8162,1.8237,1.8393,1.8502,1.8544,1.8532,1.8422,1.8408,1.8317,1.8286,1.8275,1.824,1.8169,0,0]},{"header":{"parameterUnit":"m.s-1","parameterCategory":1,"la1":30.2992,"la2":30.254,"lo1":-89.0895,"lo2":-89.0443,"dy":0.0025,"dx":0.0025,"nx":19,"ny":19,"refTime":"2026-04-04T09:00:00:Z","depth":0,"parameterNumber":3,"parameterNumberName":"V-component_of_WINDS"},"data":[0,0,0,-5.1803,-5.1791,-5.1163,-5.116,-5.0379,-5.0372,0,0,0,0,0,0,0,0,0,0,0,-5.2026,-5.2023,-5.1804,-5.1789,-5.1163,-5.116,-5.038,-5.0372,0,0,0,0,0,0,0,0,0,0,0,-5.2028,-5.2024,-5.2019,-5.1787,-5.1164,-5.116,-5.0382,-5.0841,0,0,0,0,0,0,0,0,0,0,-5.1444,-5.1695,-5.2025,-5.2019,-5.1784,-5.1164,-5.1159,-5.0863,-5.0813,-5.068,0,-5.0594,0,-5.0473,-5.0324,-5.0321,0,0,0,-5.1754,-5.1737,-5.1536,-5.2019,-5.1779,-5.1166,-5.1436,-5.0834,-5.0778,-5.0614,-5.0583,-5.0552,-5.046,-5.0319,-5.0315,-4.9713,-4.9712,0,0,-5.1789,-5.1929,-5.1576,-5.1502,-5.1627,-5.1456,-5.1417,-5.0799,-5.0765,-5.058,-5.0533,-5.0447,-5.0314,-5.0309,-4.9714,-4.9713,0,0,0,-5.1912,-5.1955,-5.1767,-5.1535,-5.1422,-5.1439,-5.1393,-5.0793,-5.0721,-5.0524,-5.0438,-5.031,-5.0301,-4.9716,-4.9714,-4.9795,0,0,0,-5.1931,-5.2026,-5.1784,-5.1863,-5.1435,-5.1105,-5.1402,-5.0764,-5.069,-5.0442,-5.031,-5.0294,-4.9717,-4.9715,-4.9795,-4.9806,0,0,0,-5.2053,-5.204,-5.1965,-5.1872,-5.161,-5.1112,-5.1004,-5.0745,-5.0639,-5.0321,-5.0292,-4.9718,-4.9715,-4.9796,-4.9806,-4.9683,0,0,0,-5.2219,-5.2041,-5.1969,-5.1732,-5.1617,-5.1176,-5.1006,-5.0665,-5.0403,-5.0306,-4.9717,-4.9714,-4.9796,-4.9806,-4.9685,-4.9603,-4.9586,0,0,-5.2071,-5.2029,-5.1877,-5.1794,-5.1406,-5.126,-5.0868,-5.0488,-5.0318,-4.9918,-4.9901,-4.9795,-4.9806,-4.9683,-4.9445,-4.9433,0,0,0,-5.1876,-5.177,-5.1635,-5.1403,-5.1118,-5.0864,-5.0532,-5.0385,-5.0041,-5.0151,-4.9716,-4.9718,-4.9639,-4.9592,-4.9581,-4.9498,-4.9701,-4.9702,-4.9702,-5.1864,-5.167,-5.1402,-5.113,-5.0901,-5.0557,-5.0345,-5.0086,-4.995,-4.9849,-4.9728,-4.961,-4.9561,-4.9552,-4.9468,-4.9673,-4.9673,-4.9673,-4.9674,-5.1622,-5.1436,-5.1261,-5.0942,-5.0726,-5.0443,-5.0094,-5.0006,-4.9696,-4.9688,-4.9607,-4.961,-4.9545,-4.9459,-4.9678,-4.9677,-4.9676,-4.9676,-4.9676,-5.1589,-5.1465,-5.1302,-5.0936,-5.0669,-5.0388,-5.0102,-4.9914,-4.973,-4.9653,-4.9495,-4.9493,-4.9458,-4.9593,-4.9593,-4.9592,-4.9592,-4.9591,-4.9591,-5.1618,-5.1431,-5.1225,-5.0902,-5.072,-5.0454,-5.0095,-4.9901,-4.9636,-4.9517,-4.9515,-4.9377,-4.9582,-4.9633,-4.9583,-4.9585,-4.9586,-4.9586,-4.9587,-5.1438,-5.1447,-5.113,-5.0949,-5.0543,-5.0281,-5.0045,-4.9664,-4.9475,-4.9334,-4.921,-4.9396,-4.9332,-4.9339,-4.9378,-4.9265,-4.9265,-4.9265,-4.9265,-5.1406,-5.1359,-5.0985,-5.0704,-5.0405,-5.0157,-4.9772,-4.9483,-4.9181,-4.9045,-4.9033,-4.9071,-4.9088,-4.9012,-4.9026,-4.9059,-4.8868,-4.8867,-4.8867,-5.1278,-5.1192,-5.0918,-5.0643,-5.0307,-5.0015,-4.9643,-4.9304,-4.8961,-4.8846,-4.893,-4.8947,-4.9006,-4.9039,-4.8927,-4.8953,-4.9011,0,0]}]]